[[{"header":{"parameterUnit":"m.s-1","parameterCategory":1,"la1":30.2991,"la2":30.254,"lo1":-89.0895,"lo2":-89.0444,"dy":0.0017,"dx":0.0017,"nx":28,"ny":28,"refTime":"2025-01-08T09:00:00:Z","depth":0,"parameterNumber":2,"parameterNumberName":"U-component_of_WINDS"},"data":[0,0,0,0,0,0,0,0,0,0,0,0,0,0,0,0,0,0,0,0,0,0,0,0,0,0,0,0,0,0,0,0,0,0,0,0,0,0,0,0,0,0,0,0,0,0,0,0,0,0,0,0,0,0,0,0,0,0,-0.8646,-0.8647,0,-0.8722,-0.8723,-0.8724,-0.8676,-0.8673,-0.8671,-0.8669,-0.875,-0.8754,-0.8758,0,0,0,0,0,0,0,0,0,0,0,0,0,-0.846,-0.8464,-0.8646,-0.8647,-0.8648,-0.8722,-0.8723,-0.8724,-0.8676,-0.8673,-0.867,-0.8668,-0.8749,-0.8754,-0.8759,0,0,0,0,0,0,0,0,0,0,0,0,0,-0.8539,-0.8465,-0.8646,-0.8633,-0.8632,-0.8722,-0.8723,-0.8725,-0.8677,-0.8673,-0.867,-0.8667,-0.8747,-0.8753,-0.876,-0.8867,0,0,-0.8779,-0.8782,0,0,0,0,0,0,0,0,-0.8535,-0.8546,-0.8634,-0.8634,-0.8633,-0.8686,-0.8687,-0.8773,-0.8677,-0.866,-0.8669,-0.8665,-0.8732,-0.8739,-0.8761,-0.8871,-0.8875,-0.878,-0.8784,-0.8786,-0.8788,0,0,0,0,0,0,0,-0.8529,-0.8543,-0.8676,-0.8635,-0.8635,-0.8623,-0.8631,-0.8703,-0.8714,-0.8661,-0.8658,-0.8667,-0.8731,-0.8755,-0.8763,-0.8876,-0.878,-0.8785,-0.8789,-0.8792,-0.9078,-0.9081,0,0,0,0,0,0,-0.8525,-0.8538,-0.8674,-0.8678,-0.8575,-0.863,-0.8638,-0.8673,-0.8713,-0.8716,-0.867,-0.8665,-0.8746,-0.8755,-0.8765,-0.8895,-0.8786,-0.8792,-0.8796,-0.9074,-0.9079,-0.9083,0,0,0,0,0,0,-0.8521,-0.8537,-0.8671,-0.8607,-0.8624,-0.8636,-0.8676,-0.8676,-0.87,-0.872,-0.8722,-0.8693,-0.8743,-0.8756,-0.8842,-0.8897,-0.8795,-0.8801,-0.907,-0.9076,-0.9081,-0.9154,0,0,0,0,0,0,-0.8516,-0.8536,-0.8577,-0.8609,-0.8627,-0.8746,-0.8679,-0.868,-0.8711,-0.8704,-0.8741,-0.8744,-0.8742,-0.8833,-0.8848,-0.8904,-0.8806,-0.9065,-0.9072,-0.9079,-0.9147,-0.9161,-0.9174,0,0,0,0,0,-0.8509,-0.8595,-0.8579,-0.8596,-0.8678,-0.8749,-0.876,-0.8754,-0.8715,-0.8757,-0.8769,-0.8743,-0.8887,-0.8842,-0.8859,-0.8917,-0.9062,-0.907,-0.9078,-0.9141,-0.9158,-0.9173,0,0,0,0,0,0,-0.8571,-0.8599,-0.8582,-0.8681,-0.8713,-0.8741,-0.8793,-0.8773,-0.8818,-0.8811,-0.8802,-0.8811,-0.8901,-0.8917,-0.8866,-0.9023,-0.8968,-0.8981,-0.901,-0.9027,-0.904,-0.9035,-0.8811,0,0,0,0,0,-0.8596,-0.865,-0.8672,-0.8757,-0.8774,-0.8781,-0.8812,-0.8804,-0.8838,-0.8851,-0.887,-0.8904,-0.8957,-0.8993,-0.9042,-0.9148,-0.9156,-0.9196,-0.9209,-0.922,-0.9232,-0.9289,-0.9307,-0.911,-0.911,-0.911,0,0,-0.8649,-0.867,-0.8706,-0.877,-0.8794,-0.8852,-0.8793,-0.8856,-0.8899,-0.8861,-0.8944,-0.8958,-0.8996,-0.9092,-0.9135,-0.9108,-0.9288,-0.9231,-0.924,-0.9246,-0.93,-0.9318,-0.9335,-0.9116,-0.9115,-0.9114,0,0,-0.8774,-0.8795,-0.8869,-0.8894,-0.893,-0.8934,-0.8951,-0.8982,-0.899,-0.9072,-0.9045,-0.9096,-0.9187,-0.9215,-0.9241,-0.9375,-0.9353,-0.9391,-0.9463,-0.9518,-0.9534,-0.9548,-0.9596,-0.9614,-0.9402,-0.9402,-0.9402,0,-0.8835,-0.892,-0.8909,-0.8974,-0.9004,-0.897,-0.9045,-0.9069,-0.9121,-0.9142,-0.9111,-0.9224,-0.9247,-0.9349,-0.9382,-0.9403,-0.9424,-0.9388,-0.9532,-0.9546,-0.9559,-0.9605,-0.9623,-0.9406,-0.9406,-0.9405,-0.9405,0,-0.8993,-0.9052,-0.9107,-0.9156,-0.9192,-0.9261,-0.9262,-0.9299,-0.9287,-0.9294,-0.9378,-0.9404,-0.9458,-0.9481,-0.9472,-0.9582,-0.9564,-0.9533,-0.9478,-0.9582,-0.9626,-0.9643,-0.9413,-0.9411,-0.941,-0.9409,0,0,-0.9163,-0.9203,-0.9224,-0.9246,-0.9283,-0.9329,-0.9396,-0.9448,-0.948,-0.9516,-0.9573,-0.965,-0.9621,-0.965,-0.9643,-0.9692,-0.9797,-0.9654,-0.9655,-0.9681,-0.9921,-0.9946,-0.9966,-0.9781,-0.9784,-0.9787,-0.9918,0,-0.9291,-0.9409,-0.94,-0.9512,-0.9566,-0.9534,-0.9593,-0.9622,-0.963,-0.9678,-0.9686,-0.9742,-0.9698,-0.9716,-0.9762,-0.9774,-0.9845,-0.9764,-0.9835,-0.9838,-0.9829,-0.9989,-1.0016,-1.0138,-0.9935,-0.9938,-0.994,0,-0.9457,-0.9498,-0.9614,-0.9642,-0.9665,-0.9718,-0.9764,-0.981,-0.9842,-0.9844,-0.9877,-0.9861,-0.9929,-0.9871,-0.9966,-0.9911,-0.9939,-0.9949,-0.9953,-0.9962,-0.9897,-1.0003,-1.0177,-1.0196,-0.9966,-0.9964,-0.9962,0,-0.957,-0.9654,-0.9734,-0.9754,-0.9788,-0.9826,-0.9842,-0.9871,-0.9902,-0.9943,-0.9963,-1.0012,-1.0039,-1.0077,-1.0074,-1.0032,-1.0171,-1.0112,-1.0175,-1.0176,-1.0208,-1.0207,-1.0391,-1.0223,-1.0223,-1.0223,-1.0222,0,-0.9716,-0.9789,-0.9785,-0.9835,-0.9916,-0.9905,-0.9985,-0.9997,-1.0023,-1.0074,-1.0049,-1.0098,-1.0091,-1.0141,-1.0139,-1.0218,-1.023,-1.0235,-1.0234,-1.0238,-1.0238,-1.0258,-1.025,-1.0228,-1.0227,-1.0226,-1.0225,0,-0.9857,-0.9858,-0.9943,-0.9968,-0.9976,-1.0034,-1.0056,-1.0103,-1.0107,-1.0173,-1.0188,-1.0196,-1.0252,-1.0253,-1.0318,-1.0317,-1.0414,-1.0402,-1.0403,-1.0402,-1.0466,-1.046,-1.0671,-1.0699,-1.0512,-1.0513,-1.0515,0,-0.9951,-1.0006,-1.0036,-1.0068,-1.0087,-1.0139,-1.0171,-1.0162,-1.0196,-1.0236,-1.0278,-1.0332,-1.0375,-1.0467,-1.0479,-1.0529,-1.0519,-1.059,-1.0527,-1.0529,-1.0522,-1.0519,-1.0525,-1.0603,-1.0605,-1.0607,-1.0608,0,-1.0118,-1.0115,-1.0161,-1.0207,-1.0245,-1.0281,-1.0314,-1.0342,-1.0337,-1.0377,-1.0434,-1.0467,-1.0532,-1.0587,-1.0634,-1.0651,-1.063,-1.0627,-1.0645,-1.0651,-1.0649,-1.0652,-1.0439,-1.0623,-1.0622,-1.062,-1.062,-1.0619,-1.0239,-1.0287,-1.0315,-1.0367,-1.039,-1.0422,-1.0467,-1.0477,-1.0524,-1.0576,-1.0568,-1.0632,-1.0661,-1.0723,-1.0744,-1.0794,-1.0769,-1.0794,-1.0801,-1.0808,-1.0816,-1.064,-1.0802,-1.0802,-1.0801,-1.0801,-1.0801,0,-1.0406,-1.0422,-1.047,-1.0516,-1.0557,-1.0531,-1.0566,-1.0602,-1.0658,-1.0688,-1.073,-1.0795,-1.0847,-1.0862,-1.0912,-1.0949,-1.0941,-1.0963,-1.0961,-1.0966,-1.0834,-1.0814,-1.0969,-1.0969,-1.0969,-1.0969,-1.0969,-1.0969,-1.0498,-1.0577,-1.0577,-1.0667,-1.0682,-1.0744,-1.0767,-1.0795,-1.0818,-1.0892,-1.0935,-1.0944,-1.0967,-1.1019,-1.1065,-1.1068,-1.1088,-1.1115,-1.1115,-1.0992,-1.0975,-1.0959,-1.0941,-1.1119,-1.112,-1.1242,-1.1243,-1.1244]},{"header":{"parameterUnit":"m.s-1","parameterCategory":1,"la1":30.2991,"la2":30.254,"lo1":-89.0895,"lo2":-89.0444,"dy":0.0017,"dx":0.0017,"nx":28,"ny":28,"refTime":"2025-01-08T09:00:00:Z","depth":0,"parameterNumber":3,"parameterNumberName":"V-component_of_WINDS"},"data":[0,0,0,0,0,0,0,0,0,0,0,0,0,0,0,0,0,0,0,0,0,0,0,0,0,0,0,0,0,0,0,0,0,0,0,0,0,0,0,0,0,0,0,0,0,0,0,0,0,0,0,0,0,0,0,0,0,0,-5.0307,-5.0308,0,-5.0416,-5.0417,-5.0418,-5.0335,-5.0332,-5.0328,-5.0325,-5.0433,-5.0439,-5.0445,0,0,0,0,0,0,0,0,0,0,0,0,0,-5.0022,-5.0028,-5.0307,-5.0308,-5.031,-5.0416,-5.0417,-5.0419,-5.0336,-5.0332,-5.0327,-5.0323,-5.0431,-5.0438,-5.0446,0,0,0,0,0,0,0,0,0,0,0,0,0,-5.014,-5.003,-5.0307,-5.0281,-5.028,-5.0416,-5.0417,-5.0419,-5.0337,-5.0332,-5.0326,-5.0321,-5.0429,-5.0438,-5.0447,-5.0612,0,0,-5.0475,-5.0479,0,0,0,0,0,0,0,0,-5.0133,-5.0151,-5.0284,-5.0283,-5.0282,-5.0357,-5.0356,-5.0484,-5.0338,-5.0315,-5.0325,-5.0319,-5.0412,-5.0422,-5.0454,-5.0617,-5.0622,-5.0476,-5.0482,-5.0486,-5.0488,0,0,0,0,0,0,0,-5.0125,-5.0145,-5.035,-5.0286,-5.0285,-5.0263,-5.0274,-5.038,-5.0392,-5.0317,-5.0311,-5.0325,-5.041,-5.0445,-5.0456,-5.0623,-5.0476,-5.0484,-5.049,-5.0494,-5.0925,-5.0931,0,0,0,0,0,0,-5.012,-5.0139,-5.0346,-5.0353,-5.0193,-5.0272,-5.0284,-5.0338,-5.0391,-5.0394,-5.033,-5.0321,-5.0432,-5.0445,-5.046,-5.0656,-5.0486,-5.0494,-5.05,-5.0919,-5.0926,-5.0933,0,0,0,0,0,0,-5.0115,-5.014,-5.0342,-5.0245,-5.0269,-5.0283,-5.0344,-5.0343,-5.0378,-5.0401,-5.0402,-5.0364,-5.0428,-5.0446,-5.0575,-5.0658,-5.0499,-5.0507,-5.0912,-5.0921,-5.0929,-5.105,0,0,0,0,0,0,-5.0107,-5.0138,-5.0202,-5.0247,-5.0274,-5.0457,-5.0349,-5.0349,-5.0395,-5.0385,-5.0433,-5.0436,-5.0426,-5.0561,-5.0584,-5.0668,-5.0514,-5.0905,-5.0916,-5.0927,-5.1038,-5.1061,-5.1081,0,0,0,0,0,-5.0097,-5.0231,-5.0206,-5.0231,-5.0355,-5.0462,-5.0478,-5.0464,-5.0402,-5.0466,-5.048,-5.0434,-5.0645,-5.0575,-5.06,-5.0688,-5.09,-5.0913,-5.0926,-5.1029,-5.1057,-5.1081,0,0,0,0,0,0,-5.0196,-5.0237,-5.0209,-5.0362,-5.041,-5.0448,-5.0528,-5.0495,-5.056,-5.0547,-5.0526,-5.0538,-5.0672,-5.0693,-5.0614,-5.085,-5.0762,-5.0781,-5.0832,-5.0859,-5.088,-5.0872,-5.0522,0,0,0,0,0,-5.0235,-5.032,-5.0351,-5.0483,-5.0508,-5.0515,-5.056,-5.0546,-5.0593,-5.0613,-5.0636,-5.0683,-5.0759,-5.081,-5.0882,-5.1041,-5.1049,-5.1113,-5.1135,-5.1152,-5.1169,-5.1253,-5.1281,-5.0976,-5.0976,-5.0976,0,0,-5.0318,-5.0351,-5.0406,-5.0504,-5.0539,-5.0625,-5.0532,-5.0628,-5.0691,-5.0627,-5.0749,-5.0768,-5.0818,-5.0962,-5.1027,-5.0984,-5.1255,-5.1169,-5.1183,-5.119,-5.1269,-5.1298,-5.1324,-5.0985,-5.0983,-5.0982,0,0,-5.0513,-5.0547,-5.0661,-5.0697,-5.0751,-5.0754,-5.0781,-5.0825,-5.0835,-5.0958,-5.0911,-5.0985,-5.1118,-5.1155,-5.1192,-5.14,-5.1359,-5.1423,-5.1536,-5.1618,-5.1642,-5.1663,-5.1736,-5.1763,-5.144,-5.144,-5.144,0,-5.0609,-5.0739,-5.0723,-5.0822,-5.0866,-5.0812,-5.0925,-5.0961,-5.1036,-5.1066,-5.1017,-5.1182,-5.1212,-5.1363,-5.1414,-5.1445,-5.1474,-5.1418,-5.164,-5.1661,-5.1681,-5.175,-5.1778,-5.1447,-5.1446,-5.1446,-5.1445,0,-5.0854,-5.0945,-5.1029,-5.1103,-5.1156,-5.1263,-5.126,-5.1316,-5.1296,-5.1304,-5.1428,-5.1462,-5.154,-5.1574,-5.1556,-5.1723,-5.1694,-5.1643,-5.1554,-5.1717,-5.1782,-5.1809,-5.1458,-5.1455,-5.1453,-5.1451,0,0,-5.1115,-5.1178,-5.1209,-5.1242,-5.1297,-5.1366,-5.1468,-5.1544,-5.1592,-5.1644,-5.1729,-5.1842,-5.1794,-5.1836,-5.1821,-5.1893,-5.2054,-5.1832,-5.1833,-5.1872,-5.2238,-5.2276,-5.2307,-5.2027,-5.2032,-5.2036,-5.2233,0,-5.1313,-5.1493,-5.148,-5.1649,-5.1732,-5.1681,-5.177,-5.1812,-5.1822,-5.1892,-5.1901,-5.1982,-5.1913,-5.1938,-5.2007,-5.202,-5.2127,-5.2005,-5.2104,-5.2108,-5.2093,-5.2341,-5.2382,-5.2567,-5.2259,-5.2263,-5.2266,0,-5.1568,-5.163,-5.1807,-5.1848,-5.1882,-5.1963,-5.2031,-5.2099,-5.2145,-5.2147,-5.2193,-5.2165,-5.2266,-5.2176,-5.2314,-5.2232,-5.2271,-5.2283,-5.229,-5.2299,-5.2197,-5.2356,-5.2626,-5.2654,-5.2306,-5.2303,-5.23,0,-5.174,-5.1867,-5.199,-5.2019,-5.207,-5.2128,-5.2152,-5.2192,-5.2239,-5.2297,-5.2327,-5.2396,-5.2434,-5.2488,-5.2479,-5.2414,-5.262,-5.2528,-5.2623,-5.2623,-5.2669,-5.2666,-5.2948,-5.2695,-5.2694,-5.2694,-5.2693,0,-5.1961,-5.2072,-5.2068,-5.2143,-5.2265,-5.2248,-5.2368,-5.2385,-5.2422,-5.2498,-5.2457,-5.253,-5.2514,-5.2585,-5.2578,-5.2693,-5.2711,-5.2714,-5.2711,-5.2718,-5.2717,-5.2743,-5.273,-5.2701,-5.27,-5.2698,-5.2697,0,-5.2175,-5.2177,-5.2307,-5.2344,-5.2356,-5.2444,-5.2475,-5.2545,-5.2551,-5.2648,-5.267,-5.2678,-5.276,-5.2756,-5.2848,-5.2844,-5.2985,-5.2967,-5.297,-5.2966,-5.3061,-5.3052,-5.3369,-5.341,-5.3131,-5.3133,-5.3135,0,-5.2316,-5.24,-5.2447,-5.2495,-5.2523,-5.2602,-5.2649,-5.2635,-5.2685,-5.2743,-5.2806,-5.2884,-5.2946,-5.3078,-5.3091,-5.3161,-5.3144,-5.3251,-5.3155,-5.3158,-5.3145,-5.314,-5.3148,-5.327,-5.3273,-5.3275,-5.3278,0,-5.2567,-5.2563,-5.2633,-5.2704,-5.2761,-5.2815,-5.2865,-5.2906,-5.2897,-5.2955,-5.3039,-5.3087,-5.3181,-5.3258,-5.3325,-5.3347,-5.3311,-5.3308,-5.3333,-5.3341,-5.3339,-5.3341,-5.3022,-5.33,-5.3298,-5.3297,-5.3295,-5.3294,-5.2748,-5.282,-5.2864,-5.2942,-5.2978,-5.3025,-5.3093,-5.3107,-5.3176,-5.3253,-5.3239,-5.3333,-5.3374,-5.346,-5.3489,-5.356,-5.3522,-5.3559,-5.3568,-5.3578,-5.3588,-5.3328,-5.3572,-5.3571,-5.3571,-5.357,-5.357,0,-5.2996,-5.3022,-5.3094,-5.3165,-5.3226,-5.3187,-5.324,-5.3293,-5.3377,-5.3419,-5.3481,-5.3576,-5.365,-5.3669,-5.374,-5.3793,-5.3778,-5.3813,-5.3808,-5.3814,-5.3618,-5.3589,-5.3823,-5.3823,-5.3823,-5.3823,-5.3823,-5.3823,-5.3133,-5.3252,-5.3253,-5.3388,-5.3412,-5.3504,-5.3537,-5.358,-5.3613,-5.3722,-5.3784,-5.3796,-5.3828,-5.3901,-5.3967,-5.397,-5.3998,-5.4039,-5.4036,-5.3853,-5.3828,-5.3804,-5.3776,-5.4046,-5.4046,-5.4225,-5.4227,-5.4228]}]]